Buffalo, WY

4:58 AM MST on February 07, 2016 (GMT -0700)
Buffalo | | Change Station
CLOSE
Current Station
Personal Weather Station
Location: Buffalo, WY
Elevation: 4708 ft
Nearby Weather Stations

Elev 4708 ft 44.34 °N, 106.70 °W | Updated 3 seconds ago

Overcast
Overcast
32.5 °F
Feels Like 23 °F
N
13.4
Wind Variable Wind from NW
Gusts 17.4 mph

Today
High -- | Low -- °F
--% Chance of Precip.
Yesterday
High -- | Low -- °F
Precip. -- in
Pressure 30.26 in
Visibility 10.0 miles
Clouds Overcast 7000 ft
Windchill 23 °F
Dew Point 11 °F
Humidity 40%
Rainfall 0.00 in
Snow Depth Not available.
7:18 AM 5:24 PM
Waning Crescent, 2% visible
METAR KBYG 071153Z AUTO 32025G46KT 10SM OVC070 00/M11 A3021 RMK AO2 PK WND 32046/1150 SLP247 60001 70001 T00001111 10011 21006 53010 $
Pressure 30.26 in
Visibility 10.0 miles
Clouds Overcast 7000 ft
Windchill 23 °F
Dew Point 11 °F
Humidity 40%
Rainfall 0.00 in
Snow Depth Not available.
7:18 AM 5:24 PM
Waning Crescent, 2% visible
METAR KBYG 071153Z AUTO 32025G46KT 10SM OVC070 00/M11 A3021 RMK AO2 PK WND 32046/1150 SLP247 60001 70001 T00001111 10011 21006 53010 $

10-Day Weather Forecast

Almanac

Astronomy

Feb. 07, 2016 Rise Set
Actual Time
Civil Twilight
Nautical Twilight
Astronomical Twilight
Moon
Length of Visible Light
Length of Day
Tomorrow will be .
, % of the Moon is Illuminated

Today's Extremes

State Highs State Lows

Community

WunderPhotos

Upload Photos

1,891,182 photos uploaded!

WunderBlog® & News

Nearby

Air Quality

  Air Quality AQ Index Pollutant
Not available.

Snow Depth

Station Depth Elevation

Earthquake Activity

City Distance Mag. Time & Date
Minimum magnitude displayed is 2.5.

Coastal Water Temperatures

Place Temperature

Stations

Nearby Weather Stations

Station Location Temp. Windchill Dew Point Humidity Wind Precip. Elev Updated Type
                   

Watches & Warnings

There are currently no watches in effect.